This is the latest recevied weather packets stored in our database for station/object NO4D. If no packets are shown the sender has not sent any weather packets the latest 10 day(s).
| Time | Temp. | Humidity | Pressure | Rain* | Wind** | Luminosity | Snow |
|---|---|---|---|---|---|---|---|
| 1778024893 | 23.89° C | 47% | 1013.8 hPa | 0 mm | - | 17 W/m² | - |
| 1778024591 | 23.89° C | 47% | 1013.5 hPa | 0 mm | - | 24 W/m² | - |
| 1778024287 | 23.89° C | 46% | 1013.7 hPa | 0 mm | - | 27 W/m² | - |
| 1778023985 | 24.44° C | 46% | 1013.5 hPa | 0 mm | - | 35 W/m² | - |
| 1778023682 | 24.44° C | 46% | 1013.5 hPa | 0 mm | - | 36 W/m² | - |
| 1778023380 | 24.44° C | 46% | 1013.7 hPa | 0 mm | - | 43 W/m² | - |
| 1778023076 | 25° C | 46% | 1013.6 hPa | 0 mm | - | 81 W/m² | - |
| 1778022775 | 25° C | 46% | 1013.4 hPa | 0 mm | - | 96 W/m² | - |
| 1778022472 | 25° C | 44% | 1013.7 hPa | 0 mm | - | 106 W/m² | - |
| 1778022169 | 25.56° C | 45% | 1013.4 hPa | 0 mm | - | 124 W/m² | - |
| 1778021866 | 25.56° C | 44% | 1013.7 hPa | 0 mm | - | 138 W/m² | - |
| 1778021563 | 25.56° C | 43% | 1013.6 hPa | 0 mm | - | 154 W/m² | - |
| 1778021258 | 25.56° C | 43% | 1013.6 hPa | 0 mm | - | 172 W/m² | - |
| 1778020956 | 25.56° C | 42% | 1013.5 hPa | 0 mm | - | 185 W/m² | - |
| 1778020653 | 25.56° C | 43% | 1013.8 hPa | 0 mm | - | 200 W/m² | - |
| 1778020349 | 26.11° C | 42% | 1013.7 hPa | 0 mm | - | 219 W/m² | - |
| 1778020045 | 26.11° C | 44% | 1013.8 hPa | 0 mm | - | 247 W/m² | - |
| 1778019741 | 26.11° C | 42% | 1013.9 hPa | 0 mm | - | 248 W/m² | - |
| 1778019439 | 26.11° C | 41% | 1013.6 hPa | 0 mm | - | 249 W/m² | - |
| 1778019135 | 26.11° C | 42% | 1013.6 hPa | 0 mm | - | 298 W/m² | - |
| 1778018832 | 26.11° C | 42% | 1013.7 hPa | 0 mm | - | 329 W/m² | - |
| 1778018530 | 26.11° C | 41% | 1013.7 hPa | 0 mm | - | 356 W/m² | - |
| 1778018228 | 26.67° C | 42% | 1013.7 hPa | 0 mm | - | 377 W/m² | - |
| 1778017926 | 26.11° C | 41% | 1013.4 hPa | 0 mm | - | 392 W/m² | - |
| 1778017623 | 26.11° C | 41% | 1013.8 hPa | 0 mm | - | 392 W/m² | - |
* Rain latest hour (hover to see other rain measurements)
** Current wind speed in m/s (hover to see current wind gust speed)